Weather History for Puyallup, WA

Change the Weather History Date:

Saturday, April 19, 2014

  Actual Average (KTCM) Record (KTCM)
Temperature  
Mean Temperature 44 °F -  
Max Temperature 53 °F 56 °F 73 °F (1956)
Min Temperature 35 °F 37 °F 28 °F (1966)
Degree Days  
Heating Degree Days 21    
Moisture  
Dew Point 42 °F    
Average Humidity 92    
Maximum Humidity 100    
Minimum Humidity 58    
Precipitation  
Precipitation 0.28 in - - ()
Sea Level Pressure  
Sea Level Pressure 29.93 in    
Wind  
Wind Speed 2 mph (SSW)    
Max Wind Speed 13 mph    
Max Gust Speed 21 mph    
Visibility 9 miles    
Events Rain    
Averages and records for this station are not official NWS values.
T = Trace of Precipitation, MM = Missing Value Source: NWS Daily Summary

Daily Weather History Graph

Daily Weather History Graph

Search for Another Location

Airport:

Trip Planner

Search our weather history database for the weather conditions in past years. The results will help you decide how hot, cold, wet, or windy it might be!

Date:

Astronomy

Apr. 19, 2014 Rise Set
Actual Time 6:13 AM PDT 8:03 PM PDT
Civil Twilight 5:41 AM PDT 8:36 PM PDT
Nautical Twilight 5:01 AM PDT 9:16 PM PDT
Astronomical Twilight 4:17 AM PDT 10:00 PM PDT
Moon 12:01 AM PDT (4/19) 9:28 AM PDT (4/19)
Length of Visible Light 14h 55m
Length of Day
13h 50m
Waning Gibbous, 77% of the Moon is Illuminated
Apr 19
Waning Gibbous
Apr 22
Last Quarter
Apr 28
New
May 6
First Quarter
May 14
Full

Hourly Weather History & Observations

Time (PDT) Temp. Windchill Dew Point Humidity Pressure Visibility Wind Dir Wind Speed Gust Speed Precip Events Conditions
12:15 AM 39.2 °F - 39.2 °F 100% 29.90 in 10.0 mi Calm Calm - N/A   Unknown
12:35 AM 37.4 °F - 37.4 °F 100% 29.90 in 10.0 mi Calm Calm - N/A   Unknown
12:55 AM 37.4 °F - 37.4 °F 100% 29.89 in 10.0 mi Calm Calm - N/A   Unknown
1:15 AM 37.4 °F - 37.4 °F 100% 29.87 in 10.0 mi Calm Calm - N/A   Unknown
1:35 AM 35.6 °F - 35.6 °F 100% 29.87 in 10.0 mi Calm Calm - N/A   Unknown
1:55 AM 35.6 °F - 35.6 °F 100% 29.86 in 10.0 mi Calm Calm - N/A   Unknown
2:15 AM 35.6 °F - 35.6 °F 100% 29.85 in 10.0 mi Calm Calm - N/A   Unknown
2:35 AM 37.4 °F - 37.4 °F 100% 29.84 in 10.0 mi Calm Calm - N/A   Unknown
2:55 AM 37.4 °F - 37.4 °F 100% 29.84 in 10.0 mi Calm Calm - N/A   Unknown
3:15 AM 37.4 °F - 37.4 °F 100% 29.83 in 10.0 mi Calm Calm - N/A   Unknown
3:35 AM 37.4 °F - 37.4 °F 100% 29.83 in 10.0 mi Calm Calm - N/A   Unknown
3:55 AM 37.4 °F - 37.4 °F 100% 29.82 in 10.0 mi Calm Calm - N/A   Unknown
4:15 AM 37.4 °F - 37.4 °F 100% 29.81 in 10.0 mi Calm Calm - N/A   Unknown
4:35 AM 37.4 °F - 37.4 °F 100% 29.81 in 10.0 mi Calm Calm - N/A   Unknown
4:55 AM 37.4 °F - 37.4 °F 100% 29.80 in 10.0 mi Calm Calm - N/A   Unknown
5:15 AM 37.4 °F - 37.4 °F 100% 29.81 in 10.0 mi Calm Calm - N/A   Unknown
5:35 AM 37.4 °F - 37.4 °F 100% 29.81 in 10.0 mi Calm Calm - N/A   Unknown
5:55 AM 37.4 °F - 37.4 °F 100% 29.81 in 10.0 mi Calm Calm - N/A   Unknown
6:15 AM 37.4 °F - 37.4 °F 100% 29.80 in 10.0 mi Calm Calm - N/A   Unknown
6:35 AM 39.2 °F - 39.2 °F 100% 29.81 in 10.0 mi Calm Calm - N/A   Unknown
6:55 AM 39.2 °F - 39.2 °F 100% 29.81 in 10.0 mi Calm Calm - N/A   Unknown
7:15 AM 39.2 °F - 39.2 °F 100% 29.82 in 10.0 mi Calm Calm - N/A   Unknown
7:35 AM 41.0 °F - 39.2 °F 93% 29.82 in 10.0 mi Calm Calm - N/A   Unknown
7:55 AM 42.8 °F - 39.2 °F 87% 29.82 in 10.0 mi Calm Calm - N/A   Unknown
8:15 AM 44.6 °F - 39.2 °F 81% 29.81 in 10.0 mi Calm Calm - N/A   Unknown
8:35 AM 44.6 °F - 39.2 °F 81% 29.80 in 10.0 mi Calm Calm - N/A   Unknown
8:55 AM 46.4 °F 44.3 °F 39.2 °F 76% 29.79 in 10.0 mi East 4.6 mph - N/A   Unknown
9:15 AM 46.4 °F 45.2 °F 37.4 °F 71% 29.77 in 10.0 mi East 3.5 mph - N/A   Unknown
9:35 AM 48.2 °F - 39.2 °F 71% 29.78 in 10.0 mi Calm Calm - N/A   Unknown
10:15 AM 51.8 °F - 37.4 °F 58% 29.78 in 10.0 mi Calm Calm - N/A   Unknown
10:35 AM 50.0 °F - 41.0 °F 71% 29.80 in 10.0 mi WNW 9.2 mph 19.6 mph N/A   Unknown
10:55 AM 46.4 °F 43.5 °F 42.8 °F 87% 29.83 in 5.0 mi WNW 5.8 mph 18.4 mph N/A Rain Light Rain
11:15 AM 46.4 °F 42.9 °F 44.6 °F 93% 29.85 in 10.0 mi WNW 6.9 mph - N/A Rain Light Rain
11:35 AM 46.4 °F 42.4 °F 44.6 °F 93% 29.87 in 5.0 mi WSW 8.1 mph - 0.01 in Rain Light Rain
11:55 AM 46.4 °F 45.2 °F 44.6 °F 93% 29.88 in 3.0 mi SSW 3.5 mph - 0.06 in Rain Rain
12:15 PM 46.4 °F 43.5 °F 46.4 °F 100% 29.89 in 3.0 mi SSW 5.8 mph - 0.03 in Rain Rain
12:35 PM 46.4 °F - 46.4 °F 100% 29.89 in 4.0 mi Calm Calm - 0.06 in Rain Light Rain
12:55 PM 46.4 °F 44.3 °F 46.4 °F 100% 29.87 in 6.0 mi SE 4.6 mph - 0.10 in Rain Light Rain
1:15 PM 46.4 °F 43.5 °F 46.4 °F 100% 29.89 in 5.0 mi SSE 5.8 mph - 0.01 in Rain Light Rain
1:35 PM 48.2 °F - 46.4 °F 93% 29.89 in 4.0 mi South 6.9 mph - 0.01 in Rain Light Rain
1:55 PM 48.2 °F - 46.4 °F 93% 29.91 in 10.0 mi SSW 5.8 mph - 0.01 in   Unknown
2:15 PM 50.0 °F - 46.4 °F 87% 29.92 in 10.0 mi South 9.2 mph - N/A   Unknown
2:35 PM 53.6 °F - 46.4 °F 77% 29.92 in 10.0 mi SSW 8.1 mph 19.6 mph N/A   Unknown
2:55 PM 53.6 °F - 46.4 °F 77% 29.92 in 10.0 mi South 6.9 mph 16.1 mph N/A   Unknown
3:15 PM 53.6 °F - 46.4 °F 77% 29.93 in 10.0 mi SSW 9.2 mph - N/A   Unknown
3:35 PM 53.6 °F - 46.4 °F 77% 29.94 in 10.0 mi SW 8.1 mph 17.3 mph N/A Rain Light Rain
3:55 PM 53.6 °F - 44.6 °F 72% 29.95 in 10.0 mi SSW 9.2 mph 16.1 mph N/A   Unknown
4:15 PM 53.6 °F - 44.6 °F 72% 29.96 in 10.0 mi SSW 8.1 mph 19.6 mph N/A Rain Light Rain
4:35 PM 51.8 °F - 46.4 °F 82% 29.97 in 6.0 mi SW 8.1 mph - N/A Rain Light Rain
4:55 PM 48.2 °F - 46.4 °F 93% 29.98 in 4.0 mi SW 9.2 mph 20.7 mph 0.02 in Rain Light Rain
5:15 PM 50.0 °F - 48.2 °F 94% 29.99 in 10.0 mi SW 11.5 mph - N/A   Unknown
5:35 PM 50.0 °F - 48.2 °F 94% 30.01 in 2.5 mi SSW 9.2 mph 16.1 mph N/A Rain Light Rain
5:55 PM 50.0 °F - 48.2 °F 94% 30.02 in 10.0 mi SW 12.7 mph 18.4 mph 0.02 in Rain Light Rain
6:15 PM 48.2 °F - 48.2 °F 100% 30.04 in 5.0 mi WSW 11.5 mph 17.3 mph 0.01 in Rain Light Rain
6:35 PM 48.2 °F - 48.2 °F 100% 30.05 in 10.0 mi SW 8.1 mph - 0.02 in Rain Light Rain
6:55 PM 48.2 °F - 48.2 °F 100% 30.06 in 10.0 mi SSW 9.2 mph - 0.02 in   Unknown
7:15 PM 48.2 °F - 46.4 °F 93% 30.07 in 10.0 mi SW 9.2 mph 16.1 mph N/A   Unknown
7:35 PM 48.2 °F - 46.4 °F 93% 30.08 in 10.0 mi SSW 6.9 mph - N/A   Unknown
7:55 PM 48.2 °F - 44.6 °F 87% 30.09 in 10.0 mi SW 5.8 mph - N/A   Unknown
8:15 PM 48.2 °F - 44.6 °F 87% 30.10 in 10.0 mi SW 5.8 mph - N/A   Unknown
8:35 PM 48.2 °F - 44.6 °F 87% 30.12 in 7.0 mi SSW 5.8 mph - N/A Rain Light Rain
8:55 PM 46.4 °F 45.2 °F 46.4 °F 100% 30.13 in 5.0 mi SW 3.5 mph - 0.03 in Rain Light Rain
9:15 PM 46.4 °F 42.9 °F 46.4 °F 100% 30.14 in 10.0 mi SW 6.9 mph - N/A Rain Light Rain
9:35 PM 46.4 °F 44.3 °F 44.6 °F 93% 30.15 in 10.0 mi SSW 4.6 mph - N/A   Unknown
9:55 PM 44.6 °F - 44.6 °F 100% 30.17 in 10.0 mi Calm Calm - N/A   Unknown
10:15 PM 44.6 °F - 44.6 °F 100% 30.18 in 10.0 mi Calm Calm - N/A   Unknown
10:35 PM 44.6 °F 43.1 °F 44.6 °F 100% 30.19 in 10.0 mi SSE 3.5 mph - N/A   Unknown
10:55 PM 44.6 °F 41.4 °F 44.6 °F 100% 30.19 in 10.0 mi SSE 5.8 mph - N/A   Unknown
11:15 PM 46.4 °F 43.5 °F 44.6 °F 93% 30.20 in 10.0 mi South 5.8 mph - N/A   Unknown
11:35 PM 46.4 °F 44.3 °F 44.6 °F 93% 30.21 in 4.0 mi SSW 4.6 mph 18.4 mph 0.02 in Rain Light Rain
11:55 PM 44.6 °F - 44.6 °F 100% 30.21 in 10.0 mi Calm Calm - 0.02 in   Unknown